CW6532 Weather Reports


time (UTC)temp
C
wind
direction
speed
KPH
gust
KPH
rain 1hr
cm
rain 24hr
cm
rain mn
cm
humidity
%
barometer
mb
20260506051345 16 255 4.8 9.7 0.00 0.66 0.56 53 1022.8
20260506050335 16 255 6.4 12.9 0.00 0.66 0.56 52 1022.7
20260506044327 16 286 4.8 14.5 0.00 0.69 0.56 51 1022.4
20260506043321 16 267 8.0 14.5 0.00 0.69 0.56 50 1022.2
20260506042333 17 241 11.3 17.7 0.00 0.69 0.56 49 1022.0
20260506041321 17 266 14.5 19.3 0.00 0.69 0.56 46 1021.8
20260506040355 17 252 8.0 14.5 0.00 0.69 0.56 40 1021.6
20260506035322 17 248 4.8 11.3 0.00 0.71 0.56 37 1021.5
20260506034330 17 267 9.7 14.5 0.00 0.71 0.56 36 1021.3
20260506033320 18 281 9.7 17.7 0.00 0.71 0.56 34 1021.2
20260506032333 18 253 11.3 19.3 0.00 0.71 0.56 34 1021.0
20260506031328 18 271 9.7 16.1 0.00 0.71 0.56 34 1021.0
20260506030341 18 270 11.3 22.5 0.00 0.71 0.56 34 1020.9
20260506025322 18 254 11.3 24.1 0.00 0.76 0.56 33 1020.7
20260506024345 18 305 12.9 22.5 0.00 0.76 0.56 33 1020.6
20260506023337 18 306 11.3 24.1 0.00 0.76 0.56 34 1020.4
20260506022327 18 285 14.5 22.5 0.00 0.76 0.56 34 1020.3
20260506021355 19 255 14.5 24.1 0.00 0.76 0.56 34 1019.9
20260506020342 19 264 14.5 27.4 0.00 0.76 0.56 33 1019.8
20260506015335 20 265 19.3 32.2 0.00 0.79 0.56 31 1019.5
20260506014325 21 280 16.1 32.2 0.00 0.79 0.56 28 1019.5
20260506013328 21 289 16.1 30.6 0.00 0.79 0.56 28 1019.4
20260506012336 21 242 24.1 40.2 0.00 0.79 0.56 27 1019.3
20260506011326 21 265 14.5 38.6 0.00 0.79 0.56 28 1019.2
20260506010335 21 273 16.1 35.4 0.00 0.79 0.56 28 1019.1
20260506005330 21 278 12.9 37.0 0.00 0.81 0.56 28 1019.0
20260506004357 21 243 14.5 33.8 0.00 0.81 0.56 28 1018.9
20260506003354 21 349 17.7 38.6 0.00 0.81 0.56 28 1018.8
20260506002321 21 228 19.3 33.8 0.00 0.81 0.56 28 1018.8
20260506001329 22 251 20.9 35.4 0.00 0.81 0.56 27 1018.8
20260506000323 22 239 24.1 33.8 0.00 0.81 0.56 25 1018.7
20260505235332 22 265 20.9 35.4 0.00 0.81 0.56 24 1018.7
20260505234325 22 230 19.3 41.8 0.00 0.81 0.56 26 1018.6
20260505233347 22 240 22.5 38.6 0.00 0.81 0.56 26 1018.6
20260505232337 22 222 20.9 35.4 0.00 0.81 0.56 25 1018.7
20260505231346 22 273 25.7 38.6 0.00 0.81 0.56 24 1018.7
20260505230356 22 233 30.6 43.5 0.00 0.81 0.56 24 1018.7
20260505225319 22 273 22.5 53.1 0.00 0.81 0.56 24 1018.7
20260505224343 22 279 24.1 46.7 0.00 0.81 0.56 25 1018.7
20260505223331 22 279 24.1 45.1 0.00 0.81 0.56 27 1018.9
20260505222319 23 261 29.0 43.5 0.00 0.81 0.56 28 1019.0
20260505221343 23 276 19.3 45.1 0.00 0.81 0.56 29 1019.0
20260505220328 22 234 17.7 49.9 0.00 0.81 0.56 31 1019.1
20260505215331 23 263 29.0 48.3 0.00 0.81 0.56 31 1019.2
20260505214335 22 242 24.1 43.5 0.00 0.81 0.56 34 1019.2
20260505213323 22 263 19.3 33.8 0.00 0.81 0.56 34 1019.4
20260505212327 22 234 25.7 45.1 0.00 0.81 0.56 34 1019.4
20260505211336 22 232 32.2 45.1 0.00 0.81 0.56 34 1019.4
20260505210354 22 247 27.4 41.8 0.00 0.81 0.56 33 1019.4
20260505205318 22 270 27.4 40.2 0.00 0.81 0.56 36 1019.5
20260505204322 22 252 25.7 40.2 0.00 0.81 0.56 36 1019.7
20260505203342 21 269 16.1 37.0 0.00 0.81 0.56 39 1019.8
20260505202325 23 250 27.4 41.8 0.00 0.81 0.56 37 1019.8
20260505201352 22 279 25.7 41.8 0.00 0.81 0.56 37 1019.8
20260505200320 22 245 20.9 38.6 0.00 0.81 0.56 43 1020.0
20260505195354 22 256 12.9 25.7 0.00 0.81 0.56 46 1020.1
20260505194342 22 231 11.3 25.7 0.00 0.81 0.56 49 1020.1
20260505193338 21 292 12.9 25.7 0.00 0.81 0.56 52 1020.3
20260505192329 22 220 9.7 16.1 0.00 0.81 0.56 52 1020.1
20260505191338 22 333 4.8 19.3 0.00 0.81 0.56 53 1020.3
20260505190328 22 273 9.7 19.3 0.00 0.81 0.56 52 1020.5
20260505185335 21 261 6.4 20.9 0.00 0.81 0.56 54 1020.8
20260505184320 21 279 6.4 17.7 0.00 0.81 0.56 55 1020.9
20260505183357 21 262 8.0 16.1 0.00 0.81 0.56 56 1020.9
20260505182328 21 248 9.7 25.7 0.00 0.81 0.56 57 1021.1
20260505181334 21 249 12.9 19.3 0.00 0.81 0.56 54 1021.1
20260505180319 21 257 8.0 19.3 0.00 0.81 0.56 58 1021.3
20260505175327 21 274 6.4 16.1 0.00 0.81 0.56 58 1021.4
20260505174335 20 104 1.6 14.5 0.00 0.81 0.56 59 1021.4
20260505173356 20 251 9.7 20.9 0.00 0.81 0.56 62 1021.5
20260505172324 20 336 6.4 12.9 0.00 0.81 0.56 62 1021.5
20260505171333 20 267 3.2 11.3 0.00 0.81 0.56 62 1021.5
20260505170343 19 345 4.8 9.7 0.00 0.81 0.56 65 1021.4
20260505165355 18 182 3.2 6.4 0.00 0.81 0.56 66 1021.5
20260505164320 18 257 1.6 9.7 0.00 0.81 0.56 71 1021.6
20260505163336 18 257 3.2 6.4 0.00 0.81 0.56 71 1021.6
20260505162322 17 240 1.6 8.0 0.00 0.81 0.56 72 1021.6
20260505161329 17 263 1.6 8.0 0.00 0.81 0.56 73 1021.6
20260505160323 17 263 3.2 6.4 0.00 0.81 0.56 74 1021.4
20260505153351 16 76 0.0 0.0 0.00 0.81 0.56 83 1021.4
20260505152338 16 76 0.0 1.6 0.00 0.81 0.56 84 1021.4
20260505151326 16 76 0.0 1.6 0.00 0.81 0.56 86 1021.4
20260505150334 16 76 0.0 3.2 0.00 0.81 0.56 88 1021.2
20260505140329 15 76 4.8 6.4 0.00 0.81 0.56 95 1020.9
20260505124343 14 155 4.8 14.5 0.05 0.81 0.56 96 1020.3
20260505123358 14 144 4.8 9.7 0.05 0.81 0.56 96 1020.1
20260505122326 14 73 0.0 4.8 0.05 0.79 0.53 96 1020.2
20260505121335 14 21 0.0 3.2 0.05 0.79 0.53 96 1020.1
20260505120326 14 21 0.0 4.8 0.08 0.79 0.53 96 1020.0
20260505115334 14 20 6.4 8.0 0.08 0.76 0.51 96 1019.5
20260505114322 14 67 3.2 6.4 0.08 0.76 0.51 96 1019.6
20260505113344 13 135 0.0 11.3 0.08 0.76 0.51 96 1019.8
20260505112333 13 46 3.2 4.8 0.08 0.74 0.48 96 1020.3
20260505111323 13 55 4.8 9.7 0.10 0.74 0.48 96 1019.9
20260505110333 13 110 1.6 4.8 0.08 0.71 0.46 96 1020.4
20260505101357 13 53 6.4 14.5 0.05 0.64 0.38 94 1021.1
20260505100323 13 67 9.7 14.5 0.08 0.64 0.38 93 1021.0
20260505095353 13 124 11.3 14.5 0.08 0.64 0.38 92 1021.1
20260505094336 13 109 11.3 27.4 0.10 0.64 0.38 90 1021.2
20260505093328 13 140 14.5 22.5 0.10 0.61 0.38 90 1021.4
20260505092336 13 175 14.5 22.5 0.10 0.61 0.36 91 1021.8
20260505091325 13 166 12.9 20.9 0.10 0.58 0.33 91 1021.8
20260505090336 13 169 14.5 22.5 0.13 0.56 0.30 92 1022.5
20260505085325 13 163 12.9 19.3 0.18 0.56 0.30 93 1022.7
20260505084334 13 141 9.7 17.7 0.18 0.53 0.28 93 1022.9
20260505083353 13 164 8.0 14.5 0.20 0.51 0.25 93 1023.2
20260505082320 13 167 11.3 16.1 0.20 0.51 0.25 92 1023.5
20260505081327 14 189 9.7 12.9 0.20 0.48 0.23 91 1023.7
20260505080337 14 153 3.2 8.0 0.18 0.43 0.18 90 1024.1
20260505075327 14 159 1.6 8.0 0.13 0.38 0.13 90 1024.1
20260505074337 14 201 3.2 8.0 0.13 0.36 0.10 89 1024.2
20260505073329 14 176 3.2 4.8 0.08 0.30 0.05 88 1024.3
20260505072337 14 176 0.0 0.0 0.10 0.30 0.05 87 1024.1
20260505071323 14 176 1.6 4.8 0.10 0.28 0.03 86 1024.0
20260505070333 15 45 0.0 4.8 0.08 0.25 0.00 84 1024.0
20260505065333 15 45 1.6 6.4 0.10 0.25 0.25 81 1023.8
20260505064401 15 45 4.8 6.4 0.08 0.23 0.23 79 1023.6
20260505063330 15 27 4.8 6.4 0.08 0.23 0.23 79 1023.7
20260505062334 15 27 0.0 3.2 0.05 0.20 0.20 78 1023.9
20260505061318 15 27 3.2 4.8 0.03 0.18 0.18 77 1023.8
20260505060347 15 271 3.2 8.0 0.03 0.18 0.18 78 1023.8